FW0639 Weather Reports


Display with metric or nautical units.
time (UTC)temp
F
wind
direction
speed
MPH
gust
MPH
rain 1hr
in
rain 24hr
in
rain mn
in
humidity
%
barometer
mb
20260831115002 47 191 0.0 0.0 0.00 0.00 0.00 66 1013.3
20260831113934 47 191 0.0 2.0 0.00 0.00 0.00 67 1013.2
20260831112937 47 191 0.0 1.0 0.00 0.00 0.00 68 1013.0
20260831110814 46 191 0.0 0.0 0.00 0.00 0.00 71 1012.8
20260831105819 46 191 0.0 0.0 0.00 0.00 0.00 70 1012.6
20260831104826 46 191 0.0 0.0 0.00 0.01 0.00 71 1012.6
20260831103845 46 191 0.0 0.0 0.00 0.01 0.00 70 1012.5
20260831102826 46 191 0.0 0.0 0.00 0.01 0.00 71 1012.4
20260831101753 46 191 0.0 4.0 0.00 0.01 0.00 71 1012.4
20260831100722 46 42 0.0 0.0 0.00 0.01 0.00 69 1012.4
20260831095721 47 39 0.0 0.0 0.00 0.01 0.00 67 1012.4
20260831093544 49 28 0.0 0.0 0.00 0.01 0.00 63 1012.0
20260831091415 50 20 1.0 4.0 0.00 0.01 0.00 59 1012.0
20260831090414 50 18 0.0 3.0 0.00 0.01 0.00 58 1012.1
20260831085415 52 13 0.0 0.0 0.00 0.01 0.00 55 1012.2
20260831082032 54 355 1.0 7.0 0.00 0.01 0.00 51 1012.4
20260831075839 54 353 1.0 10.0 0.00 0.01 0.00 51 1012.2
20260831074832 55 355 1.0 10.0 0.00 0.01 0.00 50 1012.2
20260831073807 54 354 2.0 10.0 0.00 0.01 0.00 51 1012.1
20260831072802 53 0 2.0 8.0 0.00 0.01 0.00 54 1012.0
20260831071801 51 14 1.0 8.0 0.00 0.01 0.00 58 1011.9
20260831070754 49 35 0.0 4.0 0.00 0.01 0.00 63 1011.9
20260831065756 49 41 0.0 1.0 0.00 0.01 0.00 65 1012.0
20260831064814 49 37 0.0 1.0 0.00 0.01 0.00 67 1011.9
20260831063820 49 37 0.0 0.0 0.00 0.01 0.00 67 1011.9
20260831062745 48 37 0.0 1.0 0.00 0.01 0.00 67 1011.8
20260831060542 48 36 0.0 3.0 0.00 0.01 0.00 67 1011.8
20260831055520 48 38 0.0 0.0 0.00 0.01 0.01 67 1011.6
20260831054508 49 38 0.0 0.0 0.00 0.01 0.01 66 1011.6
20260831053434 49 34 0.0 0.0 0.00 0.01 0.01 66 1011.5
20260831052414 50 32 0.0 0.0 0.00 0.01 0.01 64 1011.6
20260831051430 50 34 0.0 0.0 0.00 0.01 0.01 68 1011.3
20260831050451 51 32 0.0 0.0 0.00 0.01 0.01 66 1011.3
20260831045430 51 30 0.0 0.0 0.00 0.01 0.01 64 1011.3
20260831044414 51 30 0.0 0.0 0.00 0.01 0.01 65 1011.2
20260831040030 51 24 0.0 0.0 0.00 0.01 0.01 65 1010.7
20260831035055 51 28 0.0 0.0 0.00 0.01 0.01 66 1010.6
20260831034041 52 18 0.0 0.0 0.00 0.01 0.01 63 1010.5
20260831031938 54 357 0.0 0.0 0.00 0.01 0.01 61 1010.3
20260831030913 55 352 0.0 0.0 0.00 0.01 0.01 55 1010.2
20260831025933 57 346 0.0 0.0 0.00 0.01 0.01 53 1010.1
20260831024905 57 344 0.0 0.0 0.00 0.01 0.01 49 1010.0
20260831023858 58 344 0.0 0.0 0.00 0.01 0.01 48 1009.8
20260831022916 59 342 0.0 0.0 0.00 0.01 0.01 46 1009.6
20260831015739 61 338 0.0 2.0 0.00 0.01 0.01 43 1009.3
20260831014756 62 337 0.0 3.0 0.00 0.01 0.01 42 1009.1
20260831012705 64 336 0.0 2.0 0.00 0.02 0.01 42 1008.9
20260831010531 65 337 1.0 3.0 0.00 0.05 0.01 39 1008.8
20260831005532 66 337 1.0 9.0 0.00 0.05 0.01 38 1008.8
20260831004542 66 337 1.0 9.0 0.00 0.05 0.01 36 1008.8
20260831003526 65 337 1.0 6.0 0.00 0.05 0.01 37 1008.6
20260831002517 65 337 1.0 9.0 0.00 0.05 0.01 36 1008.6
20260831001537 65 337 0.0 9.0 0.00 0.05 0.01 40 1008.6
20260831000527 64 336 1.0 8.0 0.00 0.05 0.01 38 1008.7
20260830235543 65 336 1.0 4.0 0.00 0.05 0.01 41 1008.5
20260830234539 65 336 0.0 4.0 0.00 0.05 0.01 40 1008.6
20260830233513 66 337 1.0 6.0 0.00 0.05 0.01 36 1008.6
20260830232520 66 338 1.0 6.0 0.00 0.05 0.01 41 1008.7
20260830230432 66 337 1.0 6.0 0.00 0.05 0.01 37 1008.6
20260830224247 69 338 1.0 4.0 0.00 0.05 0.01 32 1008.5
20260830223308 70 339 1.0 10.0 0.00 0.05 0.01 32 1008.5
20260830222254 70 349 2.0 11.0 0.00 0.05 0.01 32 1008.6
20260830221226 71 351 2.0 11.0 0.00 0.05 0.01 32 1008.5
20260830215046 70 338 2.0 11.0 0.00 0.05 0.01 31 1008.5
20260830214034 69 349 3.0 11.0 0.00 0.05 0.01 32 1008.6
20260830213038 68 337 1.0 6.0 0.00 0.05 0.01 36 1008.6
20260830212033 68 337 1.0 4.0 0.00 0.05 0.01 38 1008.6
20260830211038 69 336 1.0 8.0 0.00 0.05 0.01 36 1008.7
20260830210016 68 336 2.0 8.0 0.00 0.05 0.01 39 1008.6
20260830205007 67 336 1.0 8.0 0.00 0.05 0.01 41 1008.6
20260830203950 64 336 1.0 8.0 0.00 0.05 0.01 47 1008.6
20260830203000 64 336 1.0 8.0 0.00 0.05 0.01 52 1008.7
20260830201927 64 336 1.0 6.0 0.00 0.05 0.01 48 1008.6
20260830200921 65 336 1.0 6.0 0.00 0.05 0.01 60 1008.5
20260830195923 65 337 1.0 7.0 0.00 0.05 0.01 53 1008.5
20260830194858 65 336 1.0 7.0 0.00 0.05 0.01 60 1008.4
20260830193921 63 336 0.0 3.0 0.00 0.05 0.01 63 1008.3
20260830192910 63 336 0.0 2.0 0.00 0.05 0.01 63 1008.4
20260830191922 63 336 0.0 4.0 0.00 0.05 0.01 65 1008.6
20260830190918 63 340 1.0 4.0 0.00 0.05 0.01 63 1008.6
20260830182554 60 336 0.0 3.0 0.00 0.05 0.01 73 1008.6
20260830181603 59 337 0.0 3.0 0.00 0.05 0.01 75 1008.5
20260830180540 59 336 0.0 2.0 0.00 0.05 0.01 79 1008.6
20260830175511 58 337 0.0 1.0 0.00 0.05 0.01 80 1008.8
20260830174517 58 338 0.0 4.0 0.00 0.05 0.01 81 1009.0
20260830173445 57 338 0.0 4.0 0.00 0.05 0.01 82 1009.0
20260830172436 57 338 0.0 2.0 0.00 0.05 0.01 85 1009.2
20260830171418 56 343 0.0 0.0 0.00 0.05 0.01 88 1009.1
20260830170435 56 346 0.0 0.0 0.00 0.05 0.01 89 1009.2
20260830165408 56 347 0.0 0.0 0.00 0.05 0.01 89 1008.5
20260830164401 56 345 0.0 0.0 0.00 0.05 0.01 89 1009.2
20260830163331 56 345 0.0 0.0 0.00 0.05 0.01 90 1008.9
20260830162319 55 344 0.0 0.0 0.00 0.05 0.01 89 1008.7
20260830161320 55 344 0.0 0.0 0.00 0.05 0.01 89 1009.0
20260830160253 55 342 0.0 0.0 0.00 0.05 0.01 90 1008.7
20260830155309 55 343 0.0 0.0 0.00 0.05 0.01 90 1008.6
20260830154330 55 344 0.0 0.0 0.00 0.05 0.01 90 1008.3
20260830153312 55 347 0.0 0.0 0.00 0.05 0.01 90 1008.2
20260830152316 54 347 0.0 0.0 0.00 0.05 0.01 90 1008.3
20260830151243 54 349 0.0 0.0 0.00 0.05 0.01 90 1007.8
20260830150226 54 353 0.0 0.0 0.00 0.05 0.01 90 1007.7
20260830145201 54 353 0.0 0.0 0.00 0.05 0.01 90 1007.9
20260830144138 53 353 0.0 2.0 0.00 0.05 0.01 90 1008.1
20260830143137 53 354 0.0 0.0 0.00 0.05 0.01 90 1007.8
20260830142201 53 353 0.0 3.0 0.00 0.05 0.01 90 1007.5
20260830141136 53 354 0.0 3.0 0.00 0.05 0.01 90 1007.7
20260830140106 53 356 0.0 0.0 0.00 0.05 0.01 90 1007.8
20260830135120 53 355 0.0 1.0 0.00 0.05 0.01 90 1008.1
20260830134132 54 353 0.0 1.0 0.00 0.05 0.01 90 1008.4
20260830133156 54 352 0.0 0.0 0.00 0.05 0.01 90 1008.4
20260830132138 54 353 0.0 1.0 0.00 0.05 0.01 90 1009.0
20260830131131 54 353 0.0 0.0 0.00 0.05 0.01 90 1008.7
20260830130131 54 353 0.0 0.0 0.00 0.05 0.01 90 1008.8
20260830125132 54 353 0.0 1.0 0.00 0.05 0.01 90 1009.1
20260830124156 54 353 0.0 0.0 0.00 0.05 0.01 90 1008.8
20260830123148 54 353 0.0 0.0 0.00 0.05 0.01 90 1008.7
20260830122156 54 353 0.0 7.0 0.00 0.05 0.01 90 1008.8
20260830121122 54 353 0.0 7.0 0.00 0.05 0.01 90 1008.6
20260830120052 54 353 0.0 0.0 0.00 0.05 0.01 90 1008.5